Accueil
METAR-TAF:

METAR-TAF

Aéroports :

Mineral Wells Airport

Mineral Wells, Texas, États-Unis

latitude: 32-46-54N, longitude: 098-03-37W, altitude: 297 m

Observation

Le bulletin a été fait il y a 26 minutes, à 10:53 UTC
Vent 3 kt de ouest/nord-ouest
Température -2°C
Humidité 86%
Pression 1027 hPa
Visibilité: 16.1 km
Ciel clair

METAR: KMWL 101053Z AUTO 30003KT 10SM CLR M02/M04 A3033 RMK AO2 SLP275 I1000 T10221039

Heure: 05:19 (11:19 UTC)


TAF: absent

Observations et prévisions météorologiques de plus de 4000 aéroports (messages METAR et TAF).

Les stations disponibles sont représentées par des disques jaunes et rouges sur la carte.

Passer la souris dessus pour voir le nom de la station.

Cliquer dessus pour voir les observations et prévisions météorologiques.

Pour changer de carte: cliquez sur les boutons verts avec une croix noire pour zoomer, sur le bouton vert avec un tiret pour effectuer un zoom arrière, ou sur les flèches vertes pour les cartes adjacentes.


METAR-TAF: